Location: Remedello Sotto
(45.2500°N, 10.3667°E)
Time: 10:55:23
(UTC+00:00)

CZ-4 R/B - Pass Details

Date: 03 February 2023
Orbit: 577 x 586 km, 97.7° (Epoch: 01 April)

Event Time Altitude Azimuth Distance (km) Brightness Sun altitude
Rises 17:16:21 0° 157° (SSE) 2,780 7.8 -8.9°
Reaches altitude 10° 17:18:30 10° 154° (SSE) 1,887 6.9 -9.2°
Maximum altitude 17:22:32 61° 74° (ENE) 660 4.4 -9.9°
Drops below altitude 10° 17:26:37 10° 354° (N) 1,908 7.0 -10.6°
Sets 17:28:48 0° 351° (N) 2,814 7.9 -11.0°
